www.pogodaiklimat.ru

Погода и климат >> Архив погоды >> Австралия >> Северная территория >> Ладжаману


ПОГОДА в Ладжаману

  • Прогноз погоды в Ладжаману
  • Монитор погоды в Ладжаману

АРХИВ ПОГОДЫ в Ладжаману

Время (UTC), дата Ветер
(напр.,м/с)
 
Видим.   Явления Облачность Т
(С)
Тd
(С)
f
(%)
Тe
(С)
Тes
(С)
Комфортность P
(гПа)
Po
(гПа)
Тmin
(С)
Tmax
(С)
R
(мм)
R24
(мм)
S
(см)
11 14.04 СВ 2 н/о н/о +29.3 +6.7 24 +28 +28 жарко 1010.8 975.2
14 14.04 В 3 н/о н/о +27.1 +7.0 28 +27 +27 жарко 1011.4 975.8 +37.3
17 14.04 В 3 н/о н/о +23.8 +7.0 34 +24 +24 комфорт 1010.9 975.3
20 14.04 С 3 н/о н/о +22.7 +8.8 41 +24 +24 комфорт 1012.1 976.5
23 14.04 В 5 н/о н/о +27.7 +7.0 27 +27 +27 жарко 1013.2 977.5
02 15.04 СВ 5 н/о н/о +34.6 +10.4 23 +34 +34 очень
жарко
1012.6 977.0 +20.1
05 15.04 ЮВ 5 н/о н/о +36.4 +8.3 18 +35 +35 очень
жарко
1009.4 973.9
08 15.04 В 4 н/о н/о +35.8 +5.1 15 +33 +33 жарко 1008.8 973.3
11 15.04 ЮВ 3 н/о н/о +29.4 +4.1 20 +28 +28 жарко 1011.2 975.6
14 15.04 В 3 н/о н/о +25.5 +4.0 25 +25 +25 комфорт 1012.3 976.7 +37.2
17 15.04 В 3 н/о н/о +23.1 +2.0 25 +23 +23 комфорт 1011.3 975.7
20 15.04 В 3 н/о н/о +20.7 +2.5 30 +21 +21 комфорт 1011.8 976.2
23 15.04 В 4 н/о н/о +27.3 +7.7 29 +27 +27 жарко 1013.8 978.1
02 16.04 СВ 6 н/о н/о +34.9 +9.3 21 +34 +34 очень
жарко
1013.0 977.4 +19.9
05 16.04 В 4 н/о н/о +35.9 +4.2 14 +33 +33 жарко 1010.4 974.8
08 16.04 СВ 3 н/о н/о +36.0 +2.1 12 +33 +33 жарко 1009.5 974.0
11 16.04 В 2 н/о н/о +27.9 +2.9 20 +26 +26 жарко 1011.9 976.3
14 16.04 В 3 н/о н/о +24.8 +4.0 26 +24 +24 комфорт 1012.3 976.7 +38.1
17 16.04 ЮВ 2 н/о н/о +21.9 +4.0 31 +22 +22 комфорт 1011.7 976.1
20 16.04 В 3 н/о н/о +20.8 +3.5 32 +22 +22 комфорт 1011.6 976.0
23 16.04 В 5 н/о н/о +26.8 +6.2 27 +26 +26 жарко 1013.8 978.1
02 17.04 СВ 4 н/о н/о +35.1 +10.2 22 +34 +34 очень
жарко
1013.5 977.8 +19.1
05 17.04 В 4 н/о н/о +37.5 +5.5 14 +35 +35 очень
жарко
1010.7 975.1
08 17.04 ЮВ 5 н/о н/о +36.8 +4.9 14 +34 +34 очень
жарко
1010.0 974.5
11 17.04 ЮВ 4 н/о н/о +31.3 +1.6 15 +29 +29 жарко 1012.5 976.9
14 17.04 ЮВ 3 н/о н/о +26.3 +3.5 23 +25 +25 комфорт 1013.3 977.6 +38.8
17 17.04 В 4 н/о н/о +26.0 +4.5 25 +25 +25 комфорт 1012.4 976.8
20 17.04 В 2 н/о н/о +21.5 +5.8 36 +22 +22 комфорт 1012.9 977.3
02 18.04 В 6 н/о н/о +33.1 +4.8 17 +31 +31 жарко 1014.9 979.2
05 18.04 В 5 н/о н/о +36.7 +1.5 11 +33 +33 жарко 1011.4 975.8
08 18.04 ЮВ 6 н/о н/о +35.3 +0.4 11 +32 +32 жарко 1010.6 975.0
11 18.04 В 2 н/о н/о +27.5 +1.1 18 +25 +25 комфорт 1012.4 976.8
14 18.04 ЮВ 3 н/о н/о +24.1 +3.4 26 +23 +23 комфорт 1013.6 977.9
17 18.04 В 4 н/о н/о +24.5 +4.8 28 +24 +24 комфорт 1012.7 977.1
20 18.04 В 4 н/о н/о +22.2 +4.3 31 +22 +22 комфорт 1012.9 977.3
23 18.04 В 4 н/о н/о +26.7 +5.6 26 +26 +26 жарко 1015.2 979.5
02 19.04 СВ 5 н/о н/о +32.7 +6.8 20 +31 +31 жарко 1014.2 978.5
05 19.04 В 4 н/о н/о +35.1 +5.5 16 +33 +33 жарко 1010.2 974.7
08 19.04 В 3 н/о н/о +34.4 +6.7 18 +32 +32 жарко 1009.2 973.7
11 19.04 В 3 н/о н/о +28.1 +7.4 27 +27 +27 жарко 1011.2 975.6
14 19.04 В 3 н/о н/о +25.5 +7.6 32 +26 +26 жарко 1011.4 975.8 +37.0
17 19.04 В 3 н/о н/о +24.5 +7.6 34 +25 +25 комфорт 1011.1 975.5
20 19.04 В 4 н/о н/о +23.5 +6.7 34 +24 +24 комфорт 1011.2 975.6
23 19.04 СВ 5 н/о н/о +27.8 +5.4 24 +27 +27 жарко 1013.2 977.5
02 20.04 В 5 н/о н/о +33.7 +6.1 18 +32 +32 жарко 1013.0 977.4 +23.0
05 20.04 ЮВ 3 н/о н/о +34.9 +5.4 16 +32 +32 жарко 1009.8 974.3
08 20.04 В 2 н/о н/о +33.4 +3.3 15 +31 +31 жарко 1008.7 973.2
11 20.04 В 2 н/о н/о +27.6 +4.6 23 +26 +26 жарко 1010.7 975.1
14 20.04 ЮВ 2 н/о н/о +26.4 +5.4 26 +26 +26 жарко 1011.1 975.5 +36.4
17 20.04 В 2 н/о н/о +23.3 +5.2 31 +23 +23 комфорт 1009.9 974.4
20 20.04 В 3 н/о н/о +21.9 +5.8 35 +22 +22 комфорт 1010.6 975.0
23 20.04 В 4 н/о н/о +28.3 +7.5 27 +28 +28 жарко 1012.4 976.8
02 21.04 СВ 6 н/о н/о +33.7 +6.9 19 +32 +32 жарко 1012.4 976.8 +20.9
05 21.04 В 5 н/о н/о +36.6 +4.8 14 +34 +34 очень
жарко
1009.7 974.2
08 21.04 ЮВ 7 н/о н/о +34.7 +2.3 13 +32 +32 жарко 1009.3 973.8

 

Местоположение метеостанции Ладжаману (Северная территория, Австралия): широта -18.33 долгота 130.63 высота над уровнем моря 317 м.

В архиве по умолчанию представлена погода в Ладжаману за последнюю неделю. Архивные данные за месяц целиком и за предыдущие месяцы, начиная с января 2011 года, Вы можете получить, выбрав интересующий диапазон дат из раскрывающегося списка и нажав кнопку "Ввод!".


*Определитесь, кто Вы:
робот инопланетянин человек

Внимание! Время в таблицах - всемирное. Для получения местного времени необходимо прибавить поправку, которая равна 9.5 ч.

Смотрите также архив погоды в соседних городах и на ближайших метеорологических станциях:

Погода в Раббит Флат (Северная территория, Австралия) (216 км)
Погода в Виктория-Ривер (Северная территория, Австралия) (219 км)
Погода в Аэропорту Аргайл (Западная Австралия, Австралия) (299 км)
Погода в Холс Крик (Западная Австралия, Австралия) (314 км)
Погода на Базе ВВС Delamere Weapons Range (Северная территория, Австралия) (318 км)
Погода в Кунунарре (Западная Австралия, Австралия) (349 км)
Погода в Дейли Уотерс (Северная территория, Австралия) (372 км)
Погода в Манбуллу Ксиро (Северная территория, Австралия) (376 км)
Погода в Теннант-Крике (Северная территория, Австралия) (400 км)
Погода в Уиндеме (Западная Австралия, Австралия) (411 км)

Пояснения к столбцам:

Ветер - указаны скорость ветра в м/с - средняя за 10 мин, порывы в срок и между сроками (в фигурных скобках) и направление, откуда дует ветер: С - северный, СВ - северо-восточный, В - восточный, ЮВ - юго-восточный, Ю - южный, ЮЗ - юго-западный, З - западный, СЗ - северо-западный.
Видимость - горизонтальная дальность видимости в метрах или километрах. При видимости от 1 до 10 км при отсутствии осадков обычно наблюдается дымка, при ухудшении видимости до 1 км и менее - туман. В сухую погоду видимость может ухудшаться дымом, пылью или мглою.
Явления - указаны атмосферные явления, наблюдавшиеся в срок или в последний час перед сроком; фигурными скобками обозначены явления, наблюдавшиеся между сроками (за 1-3 часа до срока); квадратными скобками обозначены град или гололедные отложения с указанием их диаметра в мм.
Облачность - указаны через наклонную черту общая и нижняя облачность в баллах и высота нижней границы облаков в метрах; квадратными скобками обозначены формы облаков: Ci - перистые, Cs - перисто-слоистые, Cc - перисто-кучевые, Ac - высококучевые, As - высокослоистые, Sc - слоисто-кучевые, Ns - слоисто-дождевые, Cu - кучевые, Cb - кучево-дождевые. Подробнее классификацию облаков см. в Атласе облаков (PDF).
T - Температура воздуха - температура, измеренная на высоте 2 м над землей.
Td - Температура точки росы - температура, при понижении до которой содержащийся в воздухе водяной пар достигнет насыщения.
f - Относительная влажность воздуха - влажноcть воздуха, измеренная на высоте 2 м над землей.
Te - Эффективная температура - температура, которую ощущает одетый по сезону человек в тени. Характеристика душности погоды. При расчете учитывается влияние влажности воздуха и скорости ветра на теплоощущения человека.
Tes - Эффективная температура на солнце - температура, которую ощущает человек, с поправкой на солнечный нагрев. Характеристика знойности погоды. Зависит от высоты солнца над горизонтом, облачности и скорости ветра. Ночью, в пасмурную погоду, а также при ветре 12 м/с и более поправка равна нулю.
P - Атмосферное давление - приведенное к уровню моря атмосферное давление.
Po - Атмосферное давление - измеренное на уровне метеостанции атмосферное давление.
Tmin - Минимальная температура - минимум температуры воздуха на высоте 2 м над землей.
Tmax - Максимальная температура - максимум температуры воздуха на высоте 2 м над землей.
R - Количество осадков - Количество выпавших осадков за период времени, мм. При наведении курсора мыши на число - период времени, за который выпало указанное количество осадков.
R24 - Количество осадков - Количество выпавших осадков за 24 часа, мм.
S - Снежный покров - Высота снежного покрова, см. При наведении курсора мыши на число - состояние снежного покрова и степень покрытия местности в баллах.